Location: Newark
(48.1333°N, 17.1000°E)
Time: 19:04:33
(UTC+00:00)

N. Korean satellite - Pass Details

Date: 24 January 2020
Orbit: 456 x 506 km, 97.2° (Epoch: 17 February)

Event Time Altitude Azimuth Distance (km) Brightness Sun altitude
Rises 16:46:29 0° 206° (SSW) 2,460 10.8 -11.4°
Reaches altitude 10° 16:49:08 10° 229° (SW) 1,592 10.3 -11.8°
Maximum altitude 16:51:17 16° 268° (W) 1,283 9.9 -12.2°
Drops below altitude 10° 16:53:28 10° 308° (NW) 1,604 9.7 -12.5°
Sets 16:56:09 0° 331° (NNW) 2,489 10.4 -13.0°
